LINK

Last updated on Mon Aug 03 2026 00:02:04 GMT+0000 (Coordinated Universal Time)

1 69792U 26152A 26214.17380534 .00184287 00000+0 12483-2 0 9994 2 69792 20.5901 188.5537 0020640 233.1463 126.7091 15.72823199 4684
UTC large
Height (km)
Speed (km/s)
/
Latitude / Longitude
Inclination (degrees)
Orbital Period (minutes)
Azimuth
Elevation
Range (km)
Doppler Factor

Next 0 passes for location: London (51.5072 / 0.1276)

No passes found over London.
LINK